Location: Bazinghen
(50.8246°N, 1.6616°E)
Time: 18:53:45
(UTC+00:00)

ATLAS 5 CENTAUR R/B - Pass Details

Date: 09 April 2020
Orbit: 543 x 1116 km, 63.4° (Epoch: 01 May)

Event Time Altitude Azimuth Distance (km) Brightness Sun altitude
Rises 23:30:07 0° 297° (WNW) 2,972 5.5 -30.9°
Reaches altitude 10° 23:32:51 10° 315° (NW) 2,151 4.9 -30.9°
Maximum altitude 23:36:31 21° 3° (N) 1,673 4.4 -31.0°
Drops below altitude 10° 23:40:37 10° 51° (NE) 2,430 4.9 -31.1°
Sets 23:43:56 0° 67° (ENE) 3,486 5.6 -31.1°
